星链-30545 (STARLINK-30545 )

导读

STARLINK-30545是美国太空探索技术公司(SpaceX)星链(Starlink)星座中的一颗卫星,由SpaceX于2023年10月5日发射升空,隶属于美国。星链计划旨在构建全球卫星互联网星座,为全球偏远地区等提供高速互联网接入服务,STARLINK-30545的入轨进一步扩充了星链星座的规模,推动星座组网进程。

基本信息
目录编号:
58000
目录名称:
STARLINK-30545
国际标识:
2023-153K
轨道中心:
EARTH
卫星名称:
星链-30545
卫星全名:
星链-30545 (STARLINK-30545 )
卫星状态:
在轨 (已飞行1065 天)
发射日期:
2023-10-05 UTC
国别 :
美国 (US)
星等 :
--
轨道信息
数据来源 国际轨道数据
星历时间: 2026-09-04T02:05:09+0800
12小时前
查看轨道信息
半长轴: 6861.777km
偏心率: 0.0000199
轨道倾角: 43.002°
近地点辐角 74.031°
升交点赤经 141.040°
平近点角 286.057°
近地点: 483.503km
远地点: 483.777km
周期: 94.279分钟
每日圈数: 15.273829
详细信息
固有亮度:
5
最大亮度:
0.3
卫星平台:
Starlink v2.0 mini
覆盖范围:
全球
运营商:
太空探索技术公司
运营商所在国:
美国
制造商(研发单位):
太空探索技术公司
制造商所在国:
美国
使用方式:
暂无
卫星简介
星链(Starlink)计划是由太空探索技术公司(SpaceX)提出的一个巨型低轨卫星互联网星座项目,计划在2019年至2024年间在太空搭建由约1.2万颗卫星组成的“星链”网络,其中1584颗将部署在地球上空550千米处的近地轨道,并从2020年开始工作。该卫星仍在工作。
2D轨道图
3D轨道图
轨道高度分析图
轨道倾角分析图
轨道综合分析图
查看轨道综合分析图